| time (UTC) | temp F | wind direction | speed knots | gust knots | rain 1hr in | rain 24hr in | rain mn in | humidity % | barometer mb |
| 20260905193003 | 91 | 41 | 1.7 | 7.0 | 0.00 | 0.00 | 0.00 | 22 | 1003.0 |
| 20260905191605 | 91 | 27 | 4.3 | 9.6 | 0.00 | 0.00 | 0.00 | 21 | 1003.2 |
| 20260905190122 | 93 | 22 | 4.3 | 9.6 | 0.00 | 0.00 | 0.00 | 21 | 1003.2 |
| 20260905184619 | 92 | 308 | 3.5 | 8.7 | 0.00 | 0.00 | 0.00 | 20 | 1003.4 |
| 20260905183057 | 92 | 342 | 6.1 | 12.2 | 0.00 | 0.00 | 0.00 | 21 | 1003.5 |
| 20260905181553 | 92 | 7 | 3.5 | 9.6 | 0.00 | 0.00 | 0.00 | 21 | 1003.6 |
| 20260905180052 | 91 | 45 | 4.3 | 7.8 | 0.00 | 0.00 | 0.00 | 19 | 1003.6 |
| 20260905174556 | 91 | 230 | 3.5 | 10.4 | 0.00 | 0.00 | 0.00 | 20 | 1003.8 |
| 20260905173048 | 89 | 323 | 4.3 | 7.8 | 0.00 | 0.00 | 0.00 | 22 | 1004.0 |
| 20260905171545 | 88 | 319 | 3.5 | 8.7 | 0.00 | 0.00 | 0.00 | 24 | 1004.1 |
| 20260905170040 | 85 | 318 | 0.9 | 6.1 | 0.00 | 0.00 | 0.00 | 30 | 1004.2 |
| 20260905164536 | 83 | 252 | 2.6 | 4.3 | 0.00 | 0.00 | 0.00 | 33 | 1004.6 |
| 20260905163032 | 79 | 82 | 1.7 | 6.1 | 0.00 | 0.00 | 0.00 | 38 | 1004.9 |
| 20260905161528 | 77 | 186 | 0.0 | 2.6 | 0.00 | 0.00 | 0.00 | 42 | 1004.9 |
| 20260905160023 | 75 | 176 | 3.5 | 6.1 | 0.00 | 0.00 | 0.00 | 43 | 1004.9 |
| 20260905154520 | 74 | 250 | 4.3 | 6.1 | 0.00 | 0.00 | 0.00 | 42 | 1005.0 |
| 20260905153018 | 73 | 222 | 3.5 | 5.2 | 0.00 | 0.00 | 0.00 | 45 | 1004.8 |
| 20260905151517 | 71 | 210 | 0.9 | 4.3 | 0.00 | 0.00 | 0.00 | 46 | 1004.9 |
| 20260905150016 | 71 | 217 | 1.7 | 4.3 | 0.00 | 0.00 | 0.00 | 46 | 1005.0 |
| 20260905144515 | 70 | 237 | 1.7 | 4.3 | 0.00 | 0.00 | 0.00 | 49 | 1005.0 |
| 20260905143021 | 70 | 311 | 1.7 | 3.5 | 0.00 | 0.00 | 0.00 | 55 | 1005.1 |
| 20260905141514 | 69 | 267 | 0.9 | 2.6 | 0.00 | 0.00 | 0.00 | 56 | 1005.2 |
| 20260905140013 | 67 | 351 | 0.0 | 2.6 | 0.00 | 0.00 | 0.00 | 57 | 1005.4 |
| 20260905134509 | 65 | 7 | 0.0 | 1.7 | 0.00 | 0.00 | 0.00 | 60 | 1005.3 |
| 20260905133010 | 64 | 1 | 0.9 | 3.5 | 0.00 | 0.00 | 0.00 | 60 | 1005.2 |
| 20260905131508 | 64 | 1 | 0.0 | 3.5 | 0.00 | 0.00 | 0.00 | 63 | 1005.1 |
| 20260905130004 | 64 | 351 | 3.5 | 5.2 | 0.00 | 0.00 | 0.00 | 69 | 1004.8 |
| 20260905124502 | 63 | 325 | 0.0 | 0.0 | 0.00 | 0.00 | 0.00 | 74 | 1004.6 |
| 20260905123109 | 64 | 325 | 0.0 | 0.0 | 0.00 | 0.00 | 0.00 | 72 | 1004.3 |
| 20260905121556 | 65 | 325 | 0.0 | 0.0 | 0.00 | 0.00 | 0.00 | 71 | 1004.2 |
| 20260905120053 | 66 | 325 | 0.0 | 0.9 | 0.00 | 0.00 | 0.00 | 71 | 1004.3 |
| 20260905114553 | 66 | 325 | 0.0 | 3.5 | 0.00 | 0.00 | 0.00 | 71 | 1004.3 |
| 20260905113100 | 66 | 321 | 1.7 | 3.5 | 0.00 | 0.00 | 0.00 | 70 | 1004.3 |
| 20260905111557 | 66 | 1 | 1.7 | 4.3 | 0.00 | 0.00 | 0.00 | 71 | 1004.3 |
| 20260905110050 | 66 | 324 | 0.0 | 0.0 | 0.00 | 0.00 | 0.00 | 70 | 1004.3 |
| 20260905104549 | 67 | 351 | 1.7 | 5.2 | 0.00 | 0.00 | 0.00 | 70 | 1004.4 |
| 20260905103047 | 67 | 11 | 2.6 | 6.1 | 0.00 | 0.00 | 0.00 | 69 | 1004.2 |
| 20260905101554 | 67 | 18 | 5.2 | 7.8 | 0.00 | 0.00 | 0.00 | 67 | 1004.2 |
| 20260905100043 | 68 | 351 | 5.2 | 9.6 | 0.00 | 0.00 | 0.00 | 66 | 1004.1 |
| 20260905094541 | 68 | 7 | 5.2 | 10.4 | 0.00 | 0.00 | 0.00 | 64 | 1004.2 |
| 20260905093040 | 68 | 17 | 5.2 | 10.4 | 0.00 | 0.00 | 0.00 | 62 | 1004.2 |
| 20260905091539 | 68 | 17 | 5.2 | 9.6 | 0.00 | 0.00 | 0.00 | 61 | 1004.1 |
| 20260905090037 | 68 | 22 | 6.1 | 10.4 | 0.00 | 0.00 | 0.00 | 59 | 1004.0 |
| 20260905084556 | 68 | 12 | 4.3 | 9.6 | 0.00 | 0.00 | 0.00 | 58 | 1004.0 |
| 20260905083030 | 69 | 7 | 3.5 | 6.1 | 0.00 | 0.00 | 0.00 | 56 | 1004.0 |
| 20260905081528 | 70 | 34 | 3.5 | 7.0 | 0.00 | 0.00 | 0.00 | 55 | 1004.1 |
| 20260905080025 | 70 | 347 | 2.6 | 5.2 | 0.00 | 0.00 | 0.00 | 54 | 1004.0 |
| 20260905074525 | 70 | 351 | 3.5 | 6.1 | 0.00 | 0.00 | 0.00 | 53 | 1003.9 |
| 20260905073023 | 70 | 24 | 2.6 | 6.1 | 0.00 | 0.00 | 0.00 | 53 | 1003.9 |
| 20260905071524 | 70 | 41 | 4.3 | 6.1 | 0.00 | 0.00 | 0.00 | 53 | 1003.9 |
| 20260905070019 | 70 | 5 | 2.6 | 4.3 | 0.00 | 0.00 | 0.00 | 51 | 1003.8 |
| 20260905064518 | 70 | 7 | 2.6 | 5.2 | 0.00 | 0.00 | 0.00 | 51 | 1003.7 |
| 20260905063015 | 71 | 25 | 1.7 | 3.5 | 0.00 | 0.00 | 0.00 | 49 | 1003.6 |
| 20260905061514 | 72 | 11 | 0.0 | 3.5 | 0.00 | 0.00 | 0.00 | 48 | 1003.4 |
| 20260905060010 | 73 | 9 | 4.3 | 6.1 | 0.00 | 0.00 | 0.00 | 46 | 1003.2 |
| 20260905054512 | 74 | 20 | 4.3 | 8.7 | 0.00 | 0.00 | 0.00 | 44 | 1003.1 |
| 20260905053009 | 75 | 41 | 6.1 | 10.4 | 0.00 | 0.00 | 0.00 | 42 | 1003.1 |
| 20260905051511 | 75 | 13 | 3.5 | 7.0 | 0.00 | 0.00 | 0.00 | 41 | 1003.1 |
| 20260905050007 | 76 | 18 | 3.5 | 7.0 | 0.00 | 0.00 | 0.00 | 40 | 1003.0 |
| 20260905044508 | 76 | 29 | 5.2 | 7.0 | 0.00 | 0.00 | 0.00 | 41 | 1002.9 |
| 20260905043007 | 76 | 30 | 4.3 | 7.0 | 0.00 | 0.00 | 0.00 | 40 | 1003.1 |
| 20260905041506 | 77 | 35 | 5.2 | 7.0 | 0.00 | 0.00 | 0.00 | 40 | 1002.9 |
| 20260905040005 | 78 | 26 | 4.3 | 7.0 | 0.00 | 0.00 | 0.00 | 39 | 1002.8 |
| 20260905034511 | 80 | 35 | 3.5 | 7.0 | 0.00 | 0.00 | 0.00 | 36 | 1002.8 |
| 20260905033005 | 81 | 55 | 2.6 | 3.5 | 0.00 | 0.00 | 0.00 | 35 | 1002.8 |
| 20260905031505 | 81 | 76 | 0.0 | 3.5 | 0.00 | 0.00 | 0.00 | 36 | 1002.8 |
| 20260905030013 | 80 | 154 | 1.7 | 7.0 | 0.00 | 0.00 | 0.00 | 36 | 1003.0 |
| 20260905024504 | 79 | 53 | 0.0 | 1.7 | 0.00 | 0.00 | 0.00 | 38 | 1002.9 |
| 20260905023009 | 80 | 195 | 0.0 | 0.9 | 0.00 | 0.00 | 0.00 | 37 | 1002.4 |
| 20260905021505 | 81 | 195 | 0.0 | 1.7 | 0.00 | 0.00 | 0.00 | 37 | 1001.8 |
| 20260905020002 | 81 | 195 | 0.9 | 5.2 | 0.00 | 0.00 | 0.00 | 37 | 1001.6 |
| 20260905014501 | 82 | 224 | 2.6 | 4.3 | 0.00 | 0.00 | 0.00 | 36 | 1001.7 |
| 20260905013001 | 83 | 233 | 1.7 | 7.8 | 0.00 | 0.00 | 0.00 | 35 | 1001.6 |
| 20260905011603 | 84 | 235 | 2.6 | 7.0 | 0.00 | 0.00 | 0.00 | 31 | 1001.5 |
| 20260905010105 | 85 | 188 | 3.5 | 10.4 | 0.00 | 0.00 | 0.00 | 28 | 1001.3 |
| 20260905004603 | 87 | 169 | 2.6 | 9.6 | 0.00 | 0.00 | 0.00 | 25 | 1001.1 |
| 20260905003059 | 88 | 167 | 6.1 | 13.0 | 0.00 | 0.00 | 0.00 | 25 | 1000.9 |
| 20260905001559 | 88 | 201 | 7.8 | 13.9 | 0.00 | 0.00 | 0.00 | 27 | 1001.1 |
| 20260905000058 | 89 | 180 | 7.8 | 17.4 | 0.00 | 0.00 | 0.00 | 27 | 1001.0 |
| 20260904234557 | 92 | 132 | 7.8 | 17.4 | 0.00 | 0.00 | 0.00 | 22 | 1001.1 |
| 20260904233103 | 92 | 181 | 7.0 | 13.9 | 0.00 | 0.00 | 0.00 | 22 | 1001.1 |
| 20260904231556 | 91 | 155 | 4.3 | 12.2 | 0.00 | 0.00 | 0.00 | 23 | 1001.0 |
| 20260904230055 | 91 | 81 | 4.3 | 9.6 | 0.00 | 0.00 | 0.00 | 22 | 1000.9 |
| 20260904224554 | 92 | 45 | 6.1 | 13.0 | 0.00 | 0.00 | 0.00 | 21 | 1000.8 |
| 20260904223054 | 92 | 109 | 2.6 | 9.6 | 0.00 | 0.00 | 0.00 | 20 | 1000.7 |
| 20260904221559 | 93 | 134 | 6.1 | 12.2 | 0.00 | 0.00 | 0.00 | 20 | 1000.9 |
| 20260904220054 | 92 | 165 | 3.5 | 9.6 | 0.00 | 0.00 | 0.00 | 20 | 1000.9 |
| 20260904214551 | 92 | 183 | 6.1 | 10.4 | 0.00 | 0.00 | 0.00 | 20 | 1001.1 |
| 20260904213050 | 92 | 294 | 0.9 | 11.3 | 0.00 | 0.00 | 0.00 | 20 | 1001.0 |
| 20260904211553 | 91 | 43 | 2.6 | 7.0 | 0.00 | 0.00 | 0.00 | 21 | 1001.3 |
| 20260904210049 | 91 | 51 | 2.6 | 8.7 | 0.00 | 0.00 | 0.00 | 21 | 1001.4 |
| 20260904204548 | 91 | 92 | 5.2 | 16.5 | 0.00 | 0.00 | 0.00 | 21 | 1001.5 |
| 20260904203050 | 92 | 38 | 4.3 | 9.6 | 0.00 | 0.00 | 0.00 | 21 | 1001.8 |
| 20260904201546 | 91 | 82 | 6.1 | 9.6 | 0.00 | 0.00 | 0.00 | 21 | 1001.9 |
| 20260904200052 | 90 | 78 | 5.2 | 11.3 | 0.00 | 0.00 | 0.00 | 21 | 1002.0 |
| 20260904194545 | 91 | 67 | 4.3 | 9.6 | 0.00 | 0.00 | 0.00 | 21 | 1002.3 |